Torna al catalogo

SL-8 R/B

AttivoLEO
NORAD 8344·ROCKET BODY·🇷🇺 Russia

Lanciato Sep 30, 1975 da Plesetsk Cosmodrome

Loading…

Prossimi Passaggi (prossime 24 ore)

TLE

AggiornatoSource: Space-Track

Epoca: Sep 13, 2026, 15:38 UTC

1 08344U 75094B   26256.65204091  .00000142  00000-0  52443-4 0  9991
2 08344  74.0573  21.2300 0021122 158.9984 201.2044 14.40669832671108

Traccia SL-8 R/B in tempo reale con AllMySat

Download on the App Store